FDX1874 KOAK-KLAS

Flight info

Callsign FDX1874
Flight time 1h 7m
Altitude 33000
Route CNDEL5 NTELL Q174 FLCHR COKTL4
Aircraft B77L/H-SDE1E2E3FGHIJ2J3J4J5M1RWXY/LB1D1

Departure

Time 2026-05-07 03:23
Airport San Francisco Bay Oakland International Airport (KOAK)

Arrival

Time 2026-05-07 04:30
Airport Harry Reid International Airport (KLAS)
Time Latitude Longitude Altitude Speed Heading
2026-05-07 03:09 37.71777 -122.21828 16 ft 2 kts 227°
2026-05-07 03:16 37.71771 -122.21836 17 ft 4 kts 227°
2026-05-07 03:16 37.71734 -122.21883 13 ft 11 kts 224°
2026-05-07 03:17 37.71671 -122.21972 13 ft 14 kts 229°
2026-05-07 03:17 37.71594 -122.22046 13 ft 14 kts 180°
2026-05-07 03:17 37.71522 -122.21981 13 ft 12 kts 149°
2026-05-07 03:17 37.71451 -122.22017 13 ft 12 kts 226°
2026-05-07 03:18 37.71394 -122.22096 13 ft 12 kts 228°
2026-05-07 03:18 37.71335 -122.22179 13 ft 14 kts 227°
2026-05-07 03:18 37.71260 -122.22268 13 ft 16 kts 220°
2026-05-07 03:18 37.71171 -122.22361 13 ft 17 kts 220°
2026-05-07 03:19 37.71109 -122.22425 14 ft 11 kts 206°
2026-05-07 03:19 37.71041 -122.22383 14 ft 13 kts 134°
2026-05-07 03:19 37.70978 -122.22292 13 ft 15 kts 130°
2026-05-07 03:19 37.70907 -122.22187 14 ft 17 kts 130°
2026-05-07 03:20 37.70828 -122.22068 14 ft 19 kts 130°
2026-05-07 03:20 37.70741 -122.21936 14 ft 20 kts 130°
2026-05-07 03:20 37.70645 -122.21793 14 ft 22 kts 130°
2026-05-07 03:20 37.70541 -122.21638 14 ft 24 kts 129°
2026-05-07 03:21 37.70435 -122.21479 13 ft 22 kts 130°
2026-05-07 03:21 37.70348 -122.21391 13 ft 13 kts 159°
2026-05-07 03:21 37.70258 -122.21356 14 ft 9 kts 172°
2026-05-07 03:21 37.70212 -122.21375 14 ft 8 kts 213°
2026-05-07 03:22 37.70177 -122.21427 13 ft 8 kts 257°
2026-05-07 03:22 37.70245 -122.21572 12 ft 41 kts 309°
2026-05-07 03:22 37.70616 -122.22131 14 ft 123 kts 310°
2026-05-07 03:22 37.71314 -122.23171 100 ft 176 kts 308°
2026-05-07 03:23 37.72124 -122.24367 924 ft 178 kts 308°
2026-05-07 03:23 37.72904 -122.25549 1765 ft 176 kts 307°
2026-05-07 03:23 37.73704 -122.26784 2305 ft 187 kts 307°
2026-05-07 03:23 37.74566 -122.28117 2627 ft 209 kts 308°
2026-05-07 03:24 37.75561 -122.29663 2578 ft 243 kts 308°
2026-05-07 03:24 37.76690 -122.31324 2517 ft 250 kts 310°
2026-05-07 03:24 37.77849 -122.32985 2998 ft 251 kts 311°
2026-05-07 03:24 37.78967 -122.34636 4038 ft 242 kts 306°
2026-05-07 03:25 37.79585 -122.36683 4591 ft 262 kts 275°
2026-05-07 03:25 37.79206 -122.38970 5279 ft 275 kts 242°
2026-05-07 03:25 37.77902 -122.40708 6090 ft 279 kts 211°
2026-05-07 03:25 37.76090 -122.41522 6781 ft 282 kts 190°
2026-05-07 03:26 37.74133 -122.41953 7433 ft 288 kts 190°
2026-05-07 03:26 37.72165 -122.42383 8287 ft 288 kts 190°
2026-05-07 03:26 37.70170 -122.42813 9004 ft 293 kts 189°
2026-05-07 03:26 37.68166 -122.43244 9719 ft 292 kts 189°
2026-05-07 03:27 37.66152 -122.43680 9998 ft 297 kts 189°
2026-05-07 03:27 37.64103 -122.44126 9985 ft 299 kts 189°
2026-05-07 03:27 37.62057 -122.44574 9979 ft 299 kts 189°
2026-05-07 03:27 37.59998 -122.45027 9980 ft 300 kts 189°
2026-05-07 03:28 37.57937 -122.45482 9988 ft 301 kts 189°
2026-05-07 03:28 37.55870 -122.45938 10020 ft 302 kts 189°
2026-05-07 03:28 37.53794 -122.46397 10022 ft 303 kts 189°
2026-05-07 03:28 37.51721 -122.46847 10014 ft 300 kts 186°
2026-05-07 03:29 37.49676 -122.46683 10012 ft 294 kts 159°
2026-05-07 03:29 37.47914 -122.45394 10116 ft 300 kts 137°
2026-05-07 03:29 37.46509 -122.43338 10326 ft 322 kts 124°
2026-05-07 03:29 37.45173 -122.40944 10498 ft 347 kts 124°
2026-05-07 03:30 37.43729 -122.38378 10737 ft 369 kts 124°
2026-05-07 03:30 37.42213 -122.35722 11337 ft 378 kts 125°
2026-05-07 03:30 37.40857 -122.32913 11893 ft 379 kts 110°
2026-05-07 03:30 37.40165 -122.29709 12518 ft 382 kts 102°
2026-05-07 03:31 37.39580 -122.26434 13443 ft 387 kts 102°
2026-05-07 03:31 37.38965 -122.23124 14337 ft 390 kts 103°
2026-05-07 03:31 37.38328 -122.19789 15112 ft 394 kts 102°
2026-05-07 03:31 37.37684 -122.16470 15892 ft 399 kts 103°
2026-05-07 03:32 37.37014 -122.13056 16638 ft 405 kts 103°
2026-05-07 03:32 37.36329 -122.09599 17397 ft 410 kts 103°
2026-05-07 03:32 37.35633 -122.06101 18177 ft 414 kts 103°
2026-05-07 03:32 37.34927 -122.02571 18870 ft 419 kts 103°
2026-05-07 03:33 37.34213 -121.99003 19511 ft 424 kts 103°
2026-05-07 03:33 37.33489 -121.95397 20159 ft 428 kts 102°
2026-05-07 03:33 37.32755 -121.91748 20787 ft 433 kts 102°
2026-05-07 03:33 37.32011 -121.88056 21409 ft 438 kts 102°
2026-05-07 03:34 37.31258 -121.84324 22015 ft 443 kts 102°
2026-05-07 03:34 37.30498 -121.80562 22628 ft 447 kts 102°
2026-05-07 03:34 37.29725 -121.76748 23248 ft 452 kts 102°
2026-05-07 03:34 37.28946 -121.72902 23821 ft 457 kts 102°
2026-05-07 03:35 37.28157 -121.69017 24339 ft 461 kts 102°
2026-05-07 03:35 37.27359 -121.65101 24856 ft 465 kts 102°
2026-05-07 03:35 37.26554 -121.61156 25393 ft 468 kts 102°
2026-05-07 03:35 37.25742 -121.57183 25906 ft 471 kts 102°
2026-05-07 03:36 37.24923 -121.53184 26414 ft 475 kts 102°
2026-05-07 03:36 37.24108 -121.49206 26907 ft 479 kts 102°
2026-05-07 03:36 37.23273 -121.45143 27397 ft 482 kts 102°
2026-05-07 03:36 37.22431 -121.41051 27892 ft 486 kts 102°
2026-05-07 03:37 37.21581 -121.36935 28368 ft 490 kts 102°
2026-05-07 03:37 37.20724 -121.32787 28831 ft 493 kts 102°
2026-05-07 03:37 37.19858 -121.28602 29268 ft 496 kts 102°
2026-05-07 03:37 37.18987 -121.24402 29693 ft 499 kts 102°
2026-05-07 03:38 37.18108 -121.20170 30149 ft 501 kts 103°
2026-05-07 03:38 37.17228 -121.15946 30676 ft 498 kts 102°
2026-05-07 03:38 37.16352 -121.11755 31172 ft 497 kts 102°
2026-05-07 03:38 37.15474 -121.07563 31601 ft 498 kts 102°
2026-05-07 03:39 37.14594 -121.03363 32025 ft 498 kts 102°
2026-05-07 03:39 37.13715 -120.99176 32467 ft 497 kts 102°
2026-05-07 03:39 37.12835 -120.94991 32918 ft 496 kts 102°
2026-05-07 03:39 37.11952 -120.90798 33119 ft 500 kts 102°
2026-05-07 03:40 37.11062 -120.86574 33105 ft 501 kts 102°
2026-05-07 03:40 37.09282 -120.78167 33086 ft 496 kts 102°
2026-05-07 03:41 37.07526 -120.69906 33092 ft 493 kts 102°
2026-05-07 03:41 37.05760 -120.61624 33089 ft 491 kts 102°
2026-05-07 03:42 37.03993 -120.53365 33095 ft 491 kts 102°
2026-05-07 03:42 37.02216 -120.45090 33096 ft 493 kts 102°
2026-05-07 03:43 37.00428 -120.36793 33105 ft 494 kts 102°
2026-05-07 03:43 36.98628 -120.28477 33104 ft 495 kts 102°
2026-05-07 03:44 36.96822 -120.20159 33102 ft 496 kts 103°
2026-05-07 03:44 36.95006 -120.11830 33099 ft 496 kts 103°
2026-05-07 03:45 36.93198 -120.03559 33100 ft 496 kts 103°
2026-05-07 03:45 36.91374 -119.95247 33097 ft 496 kts 103°
2026-05-07 03:45 36.90652 -119.91075 33082 ft 488 kts 91°
2026-05-07 03:46 36.90773 -119.86880 33103 ft 481 kts 76°
2026-05-07 03:46 36.91784 -119.82935 33092 ft 472 kts 63°
2026-05-07 03:46 36.93134 -119.79188 33106 ft 474 kts 64°
2026-05-07 03:47 36.95724 -119.71558 33096 ft 478 kts 65°
2026-05-07 03:47 36.98247 -119.63835 33101 ft 481 kts 65°
2026-05-07 03:48 37.00748 -119.56119 33087 ft 482 kts 65°
2026-05-07 03:48 37.03269 -119.48337 33094 ft 482 kts 65°
2026-05-07 03:49 37.05789 -119.40555 33093 ft 482 kts 65°
2026-05-07 03:49 37.08300 -119.32778 33092 ft 482 kts 65°
2026-05-07 03:50 37.10806 -119.25000 33082 ft 481 kts 65°
2026-05-07 03:50 37.13300 -119.17235 33078 ft 480 kts 65°
2026-05-07 03:51 37.15784 -119.09483 33101 ft 479 kts 65°
2026-05-07 03:51 37.18248 -119.01771 33082 ft 479 kts 65°
2026-05-07 03:52 37.20720 -118.94013 33118 ft 479 kts 65°
2026-05-07 03:52 37.23186 -118.86257 33087 ft 479 kts 65°
2026-05-07 03:53 37.25649 -118.78489 33096 ft 478 kts 65°
2026-05-07 03:53 37.27661 -118.70510 33080 ft 482 kts 75°
2026-05-07 03:54 37.28548 -118.62143 33067 ft 485 kts 82°
2026-05-07 03:54 37.29135 -118.53690 33084 ft 486 kts 82°
2026-05-07 03:55 37.29741 -118.45227 33106 ft 487 kts 82°
2026-05-07 03:55 37.30370 -118.36755 33116 ft 487 kts 82°
2026-05-07 03:56 37.31003 -118.28285 33101 ft 486 kts 82°
2026-05-07 03:56 37.31628 -118.19816 33083 ft 486 kts 82°
2026-05-07 03:57 37.32244 -118.11371 33001 ft 485 kts 82°
2026-05-07 03:57 37.32848 -118.02992 33012 ft 485 kts 82°
2026-05-07 03:58 37.33453 -117.94541 33005 ft 485 kts 82°
2026-05-07 03:58 37.34051 -117.86093 33004 ft 485 kts 82°
2026-05-07 03:59 37.34644 -117.77641 33011 ft 485 kts 82°
2026-05-07 03:59 37.35231 -117.69193 33022 ft 486 kts 82°
2026-05-07 04:00 37.35811 -117.60719 33009 ft 486 kts 82°
2026-05-07 04:00 37.36385 -117.52246 33028 ft 486 kts 82°
2026-05-07 04:01 37.36956 -117.43766 33039 ft 487 kts 82°
2026-05-07 04:01 37.37427 -117.36711 33033 ft 487 kts 82°
2026-05-07 04:02 37.37354 -117.28221 33025 ft 493 kts 102°
2026-05-07 04:02 37.35580 -117.22942 33035 ft 501 kts 120°
2026-05-07 04:02 37.34155 -117.20573 33016 ft 502 kts 130°
2026-05-07 04:03 37.29363 -117.14172 33035 ft 504 kts 131°
2026-05-07 04:03 37.24634 -117.07721 33023 ft 506 kts 130°
2026-05-07 04:04 37.19921 -117.01155 33013 ft 507 kts 129°
2026-05-07 04:04 37.15206 -116.94582 32998 ft 507 kts 129°
2026-05-07 04:05 37.10366 -116.88158 33001 ft 508 kts 135°
2026-05-07 04:05 37.04756 -116.82758 33001 ft 509 kts 144°
2026-05-07 04:06 36.98864 -116.77823 32983 ft 509 kts 144°
2026-05-07 04:06 36.93006 -116.72863 32973 ft 508 kts 143°
2026-05-07 04:07 36.87177 -116.67881 32834 ft 508 kts 143°
2026-05-07 04:07 36.84210 -116.65342 31656 ft 522 kts 143°
2026-05-07 04:07 36.81220 -116.62787 30738 ft 521 kts 143°
2026-05-07 04:07 36.78271 -116.60274 29925 ft 518 kts 143°
2026-05-07 04:08 36.75312 -116.57756 29209 ft 510 kts 143°
2026-05-07 04:08 36.72397 -116.55277 28534 ft 503 kts 143°
2026-05-07 04:08 36.69516 -116.52831 27916 ft 497 kts 143°
2026-05-07 04:08 36.66720 -116.50358 27311 ft 489 kts 139°
2026-05-07 04:09 36.64152 -116.47638 26730 ft 481 kts 134°
2026-05-07 04:09 36.61842 -116.44669 26139 ft 474 kts 128°
2026-05-07 04:09 36.59711 -116.41576 25566 ft 469 kts 128°
2026-05-07 04:09 36.57587 -116.38514 24988 ft 465 kts 128°
2026-05-07 04:10 36.55476 -116.35499 24425 ft 461 kts 128°
2026-05-07 04:10 36.53368 -116.32512 23865 ft 458 kts 128°
2026-05-07 04:10 36.51271 -116.29553 23399 ft 452 kts 128°
2026-05-07 04:10 36.49219 -116.26662 23197 ft 439 kts 128°
2026-05-07 04:11 36.47225 -116.23858 23007 ft 427 kts 128°
2026-05-07 04:11 36.45308 -116.21163 22787 ft 417 kts 128°
2026-05-07 04:11 36.43368 -116.18436 22313 ft 413 kts 128°
2026-05-07 04:11 36.41473 -116.15777 21885 ft 409 kts 128°
2026-05-07 04:12 36.39617 -116.13174 21475 ft 406 kts 128°
2026-05-07 04:12 36.37757 -116.10565 21043 ft 402 kts 128°
2026-05-07 04:12 36.35907 -116.07975 20630 ft 398 kts 128°
2026-05-07 04:12 36.34079 -116.05413 20215 ft 396 kts 128°
2026-05-07 04:13 36.32257 -116.02864 19777 ft 394 kts 128°
2026-05-07 04:13 36.30448 -116.00327 19456 ft 390 kts 128°
2026-05-07 04:13 36.28669 -115.97840 19290 ft 380 kts 128°
2026-05-07 04:13 36.26930 -115.95415 19122 ft 371 kts 128°
2026-05-07 04:14 36.25235 -115.93052 18966 ft 363 kts 127°
2026-05-07 04:14 36.23646 -115.90677 18758 ft 353 kts 124°
2026-05-07 04:14 36.22148 -115.88282 18375 ft 351 kts 123°
2026-05-07 04:14 36.20674 -115.85894 17986 ft 346 kts 123°
2026-05-07 04:15 36.19219 -115.83554 17648 ft 341 kts 123°
2026-05-07 04:15 36.17776 -115.81253 17321 ft 336 kts 124°
2026-05-07 04:15 36.16345 -115.78993 16991 ft 331 kts 124°
2026-05-07 04:15 36.14936 -115.76769 16685 ft 327 kts 124°
2026-05-07 04:16 36.13687 -115.74463 16385 ft 319 kts 112°
2026-05-07 04:16 36.12849 -115.71958 16092 ft 313 kts 107°
2026-05-07 04:16 36.12094 -115.69445 15812 ft 311 kts 107°
2026-05-07 04:16 36.11351 -115.66977 15518 ft 309 kts 107°
2026-05-07 04:17 36.10598 -115.64493 15242 ft 307 kts 107°
2026-05-07 04:17 36.09844 -115.62022 14960 ft 307 kts 107°
2026-05-07 04:17 36.09089 -115.59555 14666 ft 307 kts 107°
2026-05-07 04:17 36.08330 -115.57084 14381 ft 306 kts 107°
2026-05-07 04:18 36.07573 -115.54625 14084 ft 307 kts 107°
2026-05-07 04:18 36.06812 -115.52156 13798 ft 307 kts 107°
2026-05-07 04:18 36.06052 -115.49698 13462 ft 306 kts 107°
2026-05-07 04:18 36.05293 -115.47239 13193 ft 306 kts 107°
2026-05-07 04:19 36.04530 -115.44776 12884 ft 307 kts 107°
2026-05-07 04:19 36.03763 -115.42311 12590 ft 307 kts 107°
2026-05-07 04:19 36.03000 -115.39856 12299 ft 306 kts 107°
2026-05-07 04:19 36.02238 -115.37407 12002 ft 303 kts 107°
2026-05-07 04:20 36.01566 -115.34976 11693 ft 293 kts 98°
2026-05-07 04:20 36.01321 -115.32501 11435 ft 290 kts 90°
2026-05-07 04:20 36.01231 -115.29999 11201 ft 293 kts 89°
2026-05-07 04:21 36.01067 -115.24910 10652 ft 298 kts 89°
2026-05-07 04:21 36.00965 -115.22384 10374 ft 298 kts 90°
2026-05-07 04:21 36.00849 -115.19844 10086 ft 294 kts 90°
2026-05-07 04:21 36.00728 -115.17349 9794 ft 289 kts 90°
2026-05-07 04:22 36.00606 -115.14893 9502 ft 283 kts 90°
2026-05-07 04:22 36.00484 -115.12490 9228 ft 277 kts 90°
2026-05-07 04:22 36.00365 -115.10143 8972 ft 270 kts 91°
2026-05-07 04:22 36.00250 -115.07887 8850 ft 258 kts 90°
2026-05-07 04:23 36.00139 -115.05677 8507 ft 256 kts 91°
2026-05-07 04:23 36.00029 -115.03512 8253 ft 249 kts 91°
2026-05-07 04:23 35.99921 -115.01394 8003 ft 246 kts 90°
2026-05-07 04:23 35.99883 -114.99299 7681 ft 242 kts 86°
2026-05-07 04:24 35.99878 -114.97240 7347 ft 238 kts 87°
2026-05-07 04:24 35.99871 -114.95210 7049 ft 234 kts 87°
2026-05-07 04:24 35.99999 -114.93261 6737 ft 222 kts 66°
2026-05-07 04:24 36.00818 -114.91743 6490 ft 211 kts 40°
2026-05-07 04:25 36.02008 -114.90675 6229 ft 214 kts 30°
2026-05-07 04:25 36.03380 -114.90038 5920 ft 213 kts
2026-05-07 04:25 36.04824 -114.90347 5679 ft 213 kts 338°
2026-05-07 04:25 36.06135 -114.91218 5422 ft 215 kts 326°
2026-05-07 04:26 36.07119 -114.92596 5139 ft 220 kts 294°
2026-05-07 04:26 36.07373 -114.94459 4896 ft 220 kts 273°
2026-05-07 04:26 36.07379 -114.96307 4565 ft 214 kts 271°
2026-05-07 04:26 36.07378 -114.98095 4308 ft 199 kts 271°
2026-05-07 04:27 36.07375 -114.99712 4065 ft 184 kts 271°
2026-05-07 04:27 36.07374 -115.01236 3881 ft 178 kts 270°
2026-05-07 04:27 36.07373 -115.02773 3630 ft 179 kts 269°
2026-05-07 04:27 36.07371 -115.04263 3410 ft 166 kts 269°
2026-05-07 04:28 36.07370 -115.05649 3193 ft 157 kts 269°
2026-05-07 04:28 36.07366 -115.06998 3025 ft 159 kts 270°
2026-05-07 04:28 36.07368 -115.08392 2818 ft 164 kts 270°
2026-05-07 04:28 36.07367 -115.09801 2561 ft 164 kts 270°
2026-05-07 04:29 36.07366 -115.11178 2337 ft 157 kts 270°
2026-05-07 04:29 36.07365 -115.12510 2145 ft 153 kts 270°
2026-05-07 04:29 36.07367 -115.13766 2083 ft 134 kts 269°
2026-05-07 04:29 36.07366 -115.14637 2096 ft 68 kts 270°
2026-05-07 04:30 36.07366 -115.15010 2101 ft 35 kts 270°
2026-05-07 04:30 36.07385 -115.15285 2108 ft 30 kts 284°
2026-05-07 04:30 36.07469 -115.15509 2112 ft 24 kts 300°
2026-05-07 04:30 36.07573 -115.15662 2120 ft 23 kts 314°
2026-05-07 04:31 36.07688 -115.15805 2131 ft 21 kts 324°
2026-05-07 04:31 36.07786 -115.15808 2117 ft 16 kts 40°
2026-05-07 04:31 36.07805 -115.15661 2111 ft 20 kts 90°
2026-05-07 04:31 36.07804 -115.15480 2107 ft 22 kts 90°
2026-05-07 04:32 36.07804 -115.15287 2106 ft 23 kts 89°
2026-05-07 04:32 36.07803 -115.15092 2105 ft 23 kts 91°
2026-05-07 04:32 36.07791 -115.14894 2104 ft 23 kts 96°
2026-05-07 04:32 36.07776 -115.14698 2102 ft 23 kts 96°
2026-05-07 04:33 36.07762 -115.14500 2101 ft 23 kts 93°
2026-05-07 04:33 36.07754 -115.14305 2100 ft 23 kts 90°
2026-05-07 04:33 36.07754 -115.14107 2098 ft 23 kts 90°
2026-05-07 04:33 36.07754 -115.13909 2097 ft 23 kts 88°
2026-05-07 04:34 36.07755 -115.13712 2097 ft 23 kts 90°
2026-05-07 04:34 36.07755 -115.13514 2096 ft 23 kts 90°
2026-05-07 04:34 36.07755 -115.13316 2093 ft 23 kts 90°
2026-05-07 04:34 36.07755 -115.13118 2087 ft 23 kts 90°
2026-05-07 04:35 36.07755 -115.12908 2078 ft 26 kts 90°
2026-05-07 04:35 36.07756 -115.12696 2070 ft 19 kts 87°
2026-05-07 04:35 36.07850 -115.12638 2068 ft 17 kts
2026-05-07 04:35 36.07970 -115.12637 2068 ft 17 kts
2026-05-07 04:36 36.08092 -115.12635 2068 ft 17 kts 359°
2026-05-07 04:36 36.08212 -115.12638 2068 ft 17 kts 359°
2026-05-07 04:36 36.08280 -115.12628 2067 ft 6 kts 35°
2026-05-07 04:36 36.08290 -115.12568 2065 ft 7 kts 89°
2026-05-07 04:37 36.08291 -115.12557 2065 ft 0 kts 89°